This is the latest recevied weather packets stored in our database for station/object KW4UJ. If no packets are shown the sender has not sent any weather packets the latest 10 day(s).
| Time | Temp. | Humidity | Pressure | Rain* | Wind** | Luminosity | Snow |
|---|---|---|---|---|---|---|---|
| 1788365682 | 31.67° C | 65% | 1018.5 hPa | 0 mm | - | 186 W/m² | - |
| 1788365377 | 31.11° C | 65% | 1018.2 hPa | 0 mm | - | 176 W/m² | - |
| 1788365073 | 31.11° C | 66% | 1018.2 hPa | 0 mm | - | 172 W/m² | - |
| 1788364771 | 30.56° C | 67% | 1018.4 hPa | 0 mm | - | 166 W/m² | - |
| 1788364467 | 31.11° C | 66% | 1018.3 hPa | 0 mm | - | 160 W/m² | - |
| 1788364160 | 31.11° C | 66% | 1018.2 hPa | 0 mm | - | 157 W/m² | - |
| 1788363856 | 31.11° C | 66% | 1018.3 hPa | 0 mm | - | 158 W/m² | - |
| 1788363555 | 31.11° C | 67% | 1018.3 hPa | 0 mm | - | 148 W/m² | - |
| 1788363254 | 30.56° C | 67% | 1018.5 hPa | 0 mm | - | 137 W/m² | - |
| 1788362950 | 30.56° C | 68% | 1018.3 hPa | 0 mm | - | 131 W/m² | - |
| 1788362646 | 30.56° C | 67% | 1018.5 hPa | 0 mm | - | 122 W/m² | - |
| 1788362342 | 30.56° C | 68% | 1018.4 hPa | 0 mm | - | 120 W/m² | - |
| 1788362037 | 30.56° C | 70% | 1018.1 hPa | 0 mm | - | 115 W/m² | - |
| 1788361736 | 30.56° C | 68% | 1018.1 hPa | 0 mm | - | 109 W/m² | - |
| 1788361433 | 30.56° C | 67% | 1018.3 hPa | 0 mm | - | 107 W/m² | - |
| 1788361132 | 30° C | 71% | 1018.3 hPa | 0 mm | - | 99 W/m² | - |
| 1788360827 | 30° C | 70% | 1018.3 hPa | 0 mm | - | 95 W/m² | - |
| 1788360523 | 30° C | 71% | 1018.3 hPa | 0 mm | - | 101 W/m² | - |
| 1788360218 | 30° C | 70% | 1018.2 hPa | 0 mm | - | 101 W/m² | - |
| 1788359913 | 29.44° C | 70% | 1018.1 hPa | 0 mm | - | 101 W/m² | - |
| 1788359613 | 29.44° C | 71% | 1018 hPa | 0 mm | - | 92 W/m² | - |
| 1788359309 | 29.44° C | 71% | 1018.3 hPa | 0 mm | - | 96 W/m² | - |
| 1788359005 | 29.44° C | 72% | 1018.3 hPa | 0 mm | - | 93 W/m² | - |
| 1788358700 | 28.89° C | 74% | 1018.3 hPa | 0 mm | - | 89 W/m² | - |
| 1788358396 | 28.89° C | 73% | 1018.2 hPa | 0 mm | - | 88 W/m² | - |
* Rain latest hour (hover to see other rain measurements)
** Current wind speed in m/s (hover to see current wind gust speed)